Powrót do katalogu

LUNA-1

AktywnyNaukaSSO
NORAD 66777·PAYLOAD·🇹🇷 Turkey

Wystrzelony Nov 28, 2025 z Vandenberg Space Force Base

Loading…

Następne Przeloty (najbliższe 24 godziny)

TLE

ŚwieżeSource: Space-Track

Epoka: Sep 14, 2026, 12:20 UTC

1 66777U 25276DR  26257.51449127  .00007446  00000-0  30895-3 0  9999
2 66777  97.4183 330.8857 0000334 250.8404 109.2797 15.24147773 44064

Śledź LUNA-1 w czasie rzeczywistym z AllMySat

Download on the App Store